Theta_e
316 313 313 310 301 297 291 295 299 300 300 304 304 303 303 302 303 299 316 330 329 333 339 343 346 347 347 347 347 347 346 343 342 340 341 341 340 340 340 341 344 345 341 341 342 341 340 341 341
313 314 311 305 297 291 293 297 300 302 305 307 306 303 302 304 307 312 318 330 332 334 339 341 344 347 348 348 347 347 347 345 342 341 341 341 340 341 341 342 344 347 345 345 342 342 341 340 339
312 313 306 301 295 295 294 299 302 305 304 304 301 303 300 301 307 312 319 329 332 333 338 341 343 347 348 348 345 346 347 346 345 342 341 341 340 342 343 343 344 346 347 346 345 342 342 341 340
307 309 307 299 297 297 300 303 303 303 306 306 304 303 305 306 311 315 320 328 331 333 337 340 344 347 348 348 346 345 347 346 345 344 343 342 342 343 343 344 344 344 345 343 342 342 342 340 339
306 303 298 296 298 299 303 306 305 305 305 306 305 305 303 313 316 314 321 329 330 331 336 337 342 345 347 347 347 346 347 346 345 345 344 344 344 343 343 343 343 345 345 345 345 343 342 341 339
299 300 294 293 298 302 304 307 306 306 308 309 306 306 308 315 311 313 320 326 329 331 334 337 337 341 344 345 346 346 346 346 345 345 344 344 344 344 344 343 344 344 345 346 345 344 342 339 338
295 296 292 293 297 301 304 307 305 307 307 307 308 304 309 311 310 313 318 326 326 330 333 334 337 338 336 340 341 342 344 344 344 344 343 342 342 343 343 343 344 345 345 344 344 342 340 338 334
295 296 289 293 294 296 303 304 307 306 307 310 312 305 306 308 309 315 317 320 325 328 331 331 333 338 340 341 334 336 338 340 340 340 338 336 336 338 339 337 341 345 344 343 342 339 337 333 328
296 287 285 288 290 294 299 296 300 304 304 300 304 305 308 303 312 313 313 316 321 326 328 332 335 336 338 339 336 331 333 334 335 334 332 331 337 336 334 334 336 341 341 340 338 336 332 328 322
288 284 286 290 289 290 293 291 295 294 293 296 297 299 302 302 304 307 308 312 316 322 325 332 335 335 337 336 337 338 339 338 338 337 335 336 333 331 333 329 331 334 334 336 335 332 326 314 306
286 283 287 288 289 289 291 291 291 290 290 292 294 296 296 296 297 303 307 311 313 317 324 329 333 335 335 335 336 337 338 338 338 338 335 337 331 326 327 330 330 329 324 328 327 320 308 304 300
283 287 288 289 290 288 287 289 289 290 291 294 293 295 292 295 295 295 297 302 305 313 321 327 331 334 334 335 335 336 336 337 336 336 335 336 330 326 326 326 325 324 321 318 312 308 304 301 297
284 285 287 288 288 287 288 287 287 288 291 293 293 294 293 293 293 295 295 297 302 309 316 323 329 332 333 334 335 335 335 336 335 335 335 334 330 325 324 323 321 319 316 312 307 304 302 298 296
284 285 286 286 286 287 286 287 288 291 293 291 291 291 292 293 293 294 292 294 299 303 308 318 326 330 332 333 333 334 334 335 335 334 334 331 329 327 321 320 318 315 314 309 307 303 300 296 296
286 282 284 285 285 284 285 284 283 289 290 288 289 290 292 293 294 292 294 294 295 298 301 307 323 328 330 332 333 333 333 334 334 335 334 330 327 326 322 318 316 315 312 307 303 300 297 294 296
280 279 275 281 284 285 283 279 286 289 287 287 289 289 290 290 291 291 293 294 296 296 299 303 311 324 328 330 332 332 332 332 333 333 332 329 325 324 321 318 316 313 310 308 304 299 295 294 295
275 271 273 277 283 280 280 276 283 288 288 286 287 288 289 291 293 293 293 293 295 295 296 300 305 314 326 328 330 332 332 331 332 332 330 326 325 322 320 318 315 310 309 307 304 296 296 294 294
268 268 271 270 276 277 276 275 281 284 284 285 287 287 288 289 290 294 293 291 292 293 294 297 302 308 319 327 328 330 330 330 331 330 329 325 324 320 319 317 312 310 308 306 303 299 295 294 294
270 269 267 272 277 274 274 274 276 280 281 282 284 287 289 290 293 288 289 289 289 290 290 291 291 296 314 324 324 326 325 328 328 329 328 324 322 319 318 315 309 310 308 305 303 298 295 293 293
270 267 267 272 275 273 272 272 277 279 280 282 281 284 283 280 283 284 285 286 286 286 286 288 290 291 293 319 325 325 325 327 327 328 326 324 321 317 317 315 309 309 307 304 302 299 293 292 294
269 267 268 268 271 273 272 271 276 280 278 280 280 279 278 278 278 279 280 281 282 283 283 285 287 289 291 294 316 324 325 325 325 325 323 322 320 316 317 315 311 308 307 303 302 300 298 294 293
267 272 271 270 268 264 271 262 273 276 276 277 278 277 276 276 276 277 277 277 279 280 282 283 285 286 291 291 297 319 320 319 322 322 321 318 318 315 316 314 312 309 308 305 302 301 300 297 294
269 272 271 271 268 267 268 266 272 275 273 275 277 278 277 276 275 275 275 276 277 278 279 280 282 283 286 288 291 307 319 319 320 321 316 315 315 315 314 312 310 308 307 305 303 301 300 298 297
274 271 271 270 268 261 267 267 270 271 273 275 277 277 277 276 275 275 275 276 275 277 277 278 279 281 283 285 288 297 316 319 318 317 312 312 312 312 312 310 309 308 306 304 303 303 301 299 297
272 266 259 256 257 260 269 266 270 275 276 276 276 276 277 277 275 274 273 273 274 274 275 276 277 278 281 282 286 291 301 318 315 312 310 309 308 308 308 308 307 306 306 304 304 302 302 300 298
269 264 258 252 259 261 268 267 270 277 278 279 278 278 277 276 276 275 274 273 273 274 274 274 275 276 279 281 284 288 294 309 309 307 306 305 305 305 304 305 306 305 303 302 302 302 301 299 298
265 261 267 259 263 261 265 266 275 276 275 276 276 276 276 276 276 275 275 274 273 273 273 273 274 275 277 280 283 285 288 292 299 303 303 303 301 300 300 302 301 300 300 301 301 300 299 298 297
267 270 260 260 248 250 263 262 265 270 271 273 274 274 275 276 276 276 276 276 275 274 273 273 273 274 276 279 281 284 285 288 291 296 298 300 300 300 298 299 298 297 298 299 299 299 298 297 296
265 263 264 264 261 256 257 258 267 269 272 271 273 274 275 275 276 276 277 277 277 276 275 273 273 273 274 277 279 281 283 285 287 288 290 294 297 297 298 299 296 296 296 296 296 296 295 296 295
266 262 263 255 256 260 260 259 271 273 274 273 273 274 275 276 276 276 276 276 276 275 275 274 273 273 274 276 278 279 281 282 284 286 288 289 292 294 295 295 294 294 294 294 295 294 294 294 293
Wind_Speed
5 3 2 5 4 5 4 7 2 4 4 1 2 1 8 4 6 5 3 9 5 8 14 15 19 19 18 18 18 18 18 19 18 18 18 17 16 16 15 14 13 13 14 14 13 12 11 12 11
3 1 5 3 4 2 6 5 8 7 6 9 7 3 1 7 4 7 3 9 8 9 12 14 18 20 20 19 18 18 19 19 19 19 19 18 17 17 16 15 13 12 16 16 14 13 12 12 11
1 4 3 3 3 8 6 6 10 7 3 3 4 2 3 5 4 4 3 12 10 11 13 14 18 21 21 20 21 20 18 18 18 19 19 19 18 18 17 16 14 12 14 14 14 13 13 12 12
2 4 3 2 15 8 9 8 5 5 3 6 3 8 5 6 3 4 2 8 8 12 15 16 19 20 20 20 22 22 20 19 18 18 17 18 17 15 15 14 13 12 13 15 14 14 14 13 11
4 3 1 5 9 5 7 7 4 6 5 4 2 8 5 11 11 6 7 10 10 10 14 16 23 23 22 22 21 21 20 19 18 18 18 17 17 16 15 14 13 12 13 15 15 15 14 12 10
2 3 3 8 17 6 6 7 4 8 7 9 4 6 8 6 6 8 5 5 2 7 8 12 20 22 21 21 20 21 20 19 19 19 18 18 17 17 16 15 14 13 12 12 14 15 14 11 9
5 4 5 5 19 17 11 6 7 13 12 18 3 3 7 5 6 8 6 6 4 3 5 6 11 14 15 17 17 17 19 19 18 17 17 17 16 15 15 15 14 14 14 12 13 14 12 11 9
4 4 3 6 13 17 4 7 3 9 13 4 6 6 8 1 5 3 2 2 5 5 5 5 6 11 13 12 14 14 14 14 15 15 13 12 12 12 11 11 11 14 13 11 13 13 12 11 9
3 1 4 6 6 9 8 3 6 2 6 3 4 6 9 4 6 6 3 2 3 5 7 6 8 10 14 16 11 12 13 13 13 12 12 10 7 8 8 8 10 12 15 14 14 13 11 9 9
4 4 10 6 3 7 11 5 8 4 4 16 15 8 11 9 3 6 8 8 5 6 7 10 13 13 12 12 15 12 11 10 10 10 9 8 6 6 6 9 13 10 10 14 14 12 10 8 4
2 6 5 5 7 4 7 21 6 7 16 13 18 19 6 9 10 7 8 7 7 5 4 8 12 14 13 12 9 7 7 8 9 13 10 10 6 5 4 5 5 4 8 5 7 6 4 5 4
5 6 5 6 7 8 7 11 17 13 18 13 12 14 6 11 11 8 10 14 13 7 10 10 12 12 14 9 9 9 9 9 9 11 13 11 7 7 7 5 7 5 4 6 5 4 5 4 4
5 4 6 8 11 11 12 15 23 25 16 17 18 18 18 15 15 16 12 12 14 9 11 9 11 15 15 14 10 10 12 11 12 11 12 11 10 9 8 7 7 6 6 6 5 5 5 5 4
5 5 11 7 10 13 19 24 14 25 17 15 13 14 15 17 16 13 8 9 10 14 14 10 11 15 14 14 15 13 11 12 11 10 12 13 11 9 9 8 8 7 7 6 6 6 5 4 4
6 10 7 7 9 5 14 16 10 13 11 8 11 13 14 15 14 9 10 10 10 14 17 14 13 15 15 17 15 12 12 12 11 12 14 14 12 13 12 9 8 8 7 8 5 4 4 4 3
8 4 7 9 20 10 14 23 12 14 19 30 22 14 12 11 10 9 9 10 14 14 15 15 11 12 15 16 15 12 12 12 12 11 10 15 13 12 12 9 9 9 8 8 7 5 4 4 4
10 7 13 12 20 17 9 30 4 29 30 25 29 24 20 21 21 15 10 12 13 10 12 13 9 14 16 17 14 15 15 13 12 11 11 14 15 14 12 10 9 11 8 8 8 3 4 4 3
11 8 8 16 9 13 17 36 25 19 26 28 24 28 25 17 13 17 17 17 16 14 14 12 12 11 12 12 12 11 11 12 12 11 12 15 13 15 13 9 10 11 9 8 7 7 3 3 4
5 11 19 17 11 20 8 29 31 23 20 24 26 24 26 28 20 19 19 18 18 17 17 16 16 17 9 9 11 12 13 12 12 12 15 16 15 16 15 10 11 11 12 13 13 6 7 2 4
9 16 13 15 15 21 18 32 28 19 11 18 24 24 23 25 23 22 22 21 19 18 18 18 17 17 12 10 10 11 12 12 12 11 12 15 17 17 15 13 12 13 10 11 12 10 4 3 7
12 6 14 20 21 14 13 6 22 22 19 23 25 20 22 22 24 23 24 22 20 20 21 19 19 19 16 14 11 9 10 9 8 8 9 12 15 16 17 16 13 14 12 12 15 14 13 7 5
8 10 19 21 15 6 7 10 10 20 23 24 22 23 22 23 20 21 22 23 23 21 19 20 19 19 16 17 13 17 14 14 11 11 8 10 16 17 18 17 15 15 11 13 14 13 13 9 10
9 23 20 18 13 10 5 1 6 14 19 23 20 19 19 20 21 22 21 21 20 20 19 19 19 19 19 18 14 14 17 12 9 10 12 12 12 14 16 16 15 14 11 12 14 15 14 12 10
17 14 10 1 3 2 5 10 2 9 11 17 16 16 17 19 22 20 20 19 18 18 19 19 20 20 20 20 19 16 18 16 11 10 10 10 9 10 13 14 14 14 13 15 14 15 16 14 10
14 8 5 9 7 5 8 10 3 7 8 11 15 16 16 16 17 21 23 23 22 22 22 19 21 21 21 22 20 18 17 16 13 12 10 10 8 9 12 15 15 13 15 13 12 14 15 14 13
7 4 5 2 6 10 17 4 2 5 5 8 10 12 14 16 15 18 21 19 20 21 20 20 21 21 22 21 21 17 18 8 6 9 7 8 8 8 7 11 11 12 11 12 13 11 11 13 11
5 5 5 2 6 5 6 6 11 12 16 15 14 15 16 16 17 17 18 19 18 19 20 19 20 20 21 21 18 18 17 16 8 4 7 7 5 6 9 12 11 8 10 12 14 11 13 13 13
6 4 4 4 5 7 8 7 6 15 19 17 16 16 16 15 15 14 15 17 17 17 16 18 18 19 20 20 17 15 16 16 14 9 7 1 4 7 8 9 8 8 10 11 12 9 11 12 10
2 2 3 2 3 3 8 8 6 7 10 13 14 13 14 14 15 14 14 15 15 17 17 17 18 20 20 19 18 18 17 17 14 12 11 8 3 1 6 9 7 8 9 9 10 8 10 12 11
5 6 5 6 7 4 3 13 9 8 8 7 13 10 12 12 13 13 12 13 15 16 17 17 18 18 19 18 18 18 17 17 17 15 14 12 9 2 0 2 5 6 6 7 10 9 9 12 12
Wind_Direction
6 20 74 44 44 61 255 258 298 287 303 217 331 271 255 219 219 225 311 181 177 166 168 175 178 178 176 173 169 166 166 165 163 161 159 158 159 161 160 160 160 168 164 157 148 140 140 138 136
360 8 39 82 109 227 265 254 261 233 242 333 323 348 283 269 244 277 299 177 165 163 174 177 181 182 179 177 173 172 173 172 169 168 166 164 164 164 165 164 167 173 164 161 157 148 145 142 139
16 32 93 142 184 223 235 226 237 255 255 243 296 207 271 247 269 245 283 157 156 165 179 185 184 185 183 180 181 179 178 176 174 173 172 170 169 169 169 168 169 163 157 154 155 157 157 153 147
78 18 22 158 235 225 207 220 224 297 288 209 206 291 294 245 263 213 156 170 169 174 176 184 189 189 188 184 185 184 181 179 177 176 175 174 174 172 171 173 174 174 167 164 164 164 165 164 151
37 70 168 252 252 242 242 236 180 265 265 218 118 255 242 302 269 278 174 174 188 191 184 184 188 191 190 189 187 187 184 181 180 179 179 179 177 176 176 178 182 187 182 184 175 170 167 159 158
72 93 158 236 254 236 250 214 203 239 259 274 239 240 245 241 353 339 203 226 212 202 201 193 190 192 192 191 192 186 186 185 184 184 184 184 183 181 181 184 187 192 201 203 188 175 153 157 159
131 109 217 250 265 268 257 163 204 243 257 261 228 226 257 293 347 319 230 164 189 234 215 208 204 199 192 190 191 194 188 185 188 189 188 187 188 188 188 192 193 201 206 210 216 156 151 162 153
100 117 231 232 265 284 286 185 238 208 258 293 180 243 255 30 342 17 31 165 173 185 203 217 203 202 201 195 189 186 189 189 188 188 191 189 185 188 192 191 201 207 206 168 147 146 157 157 148
108 75 232 245 197 267 306 327 316 261 288 310 244 267 272 335 355 353 329 293 230 211 196 187 199 205 209 208 197 182 184 185 188 189 189 185 192 192 190 186 181 178 163 151 148 162 157 143 133
148 167 216 217 232 277 295 310 283 313 306 283 285 262 282 304 321 288 280 266 241 233 215 197 206 205 203 213 214 203 194 194 195 194 191 194 179 177 176 178 166 162 155 148 153 157 135 118 121
208 220 225 266 274 270 284 295 250 257 270 248 275 279 273 291 299 295 289 271 257 258 210 217 214 213 204 207 209 205 205 201 201 198 187 192 173 166 163 172 158 152 142 139 140 134 121 139 145
300 254 273 308 341 331 297 299 287 245 267 274 265 274 294 287 290 273 270 271 281 244 228 211 210 211 214 209 207 201 206 204 206 204 193 191 181 176 179 181 153 154 150 142 137 135 143 150 159
211 306 326 312 300 288 281 270 271 277 280 266 267 279 278 271 266 268 263 270 265 256 247 216 197 209 215 208 210 209 209 204 206 203 196 194 191 182 175 172 164 160 152 154 148 150 157 166 180
326 288 305 305 295 278 279 281 278 282 279 275 272 272 271 270 264 283 272 262 262 263 258 235 208 208 210 211 213 213 212 212 204 203 197 192 184 181 182 175 169 166 165 155 157 163 163 174 169
275 304 307 309 353 286 323 281 246 276 309 313 305 287 277 280 289 270 278 268 251 260 263 250 213 210 206 213 214 216 215 209 205 203 197 189 189 181 178 180 175 172 164 148 129 131 132 151 177
345 15 359 13 9 353 356 277 329 328 358 325 321 320 310 298 291 294 279 269 270 258 259 259 238 221 212 211 214 214 214 211 208 203 194 188 188 186 175 180 181 164 161 160 157 152 150 173 180
21 333 322 322 355 344 23 291 288 322 318 312 312 309 305 308 313 309 283 276 280 278 270 267 246 229 214 216 215 216 213 214 207 202 198 190 187 182 183 181 180 158 162 166 165 142 138 165 175
323 317 292 298 311 306 298 280 300 326 312 307 308 307 306 303 300 300 351 5 357 354 344 319 291 259 233 224 222 221 222 215 211 204 198 188 186 183 183 184 167 163 161 165 161 156 134 153 162
296 305 300 305 303 335 329 286 299 304 302 288 288 287 291 295 325 9 0 3 359 358 355 343 338 331 272 224 221 218 217 219 214 209 196 188 183 183 187 178 167 172 170 177 169 143 170 139 144
337 313 309 299 341 322 296 296 302 302 290 340 352 324 7 4 358 357 355 356 358 350 348 343 336 327 321 279 231 224 216 215 214 210 198 189 185 183 188 183 178 179 167 164 169 161 141 126 171
326 309 316 295 318 279 326 317 34 15 17 9 6 1 8 0 349 352 349 350 349 350 345 341 333 328 317 303 281 235 228 220 208 209 199 198 183 182 188 189 183 177 175 174 177 177 168 165 191
320 331 307 295 321 312 42 291 35 4 15 14 4 1 354 353 353 348 350 345 346 344 341 338 333 331 325 322 305 242 226 218 209 202 192 189 190 189 192 189 184 183 180 179 181 181 182 157 175
274 309 296 286 275 311 356 208 343 14 11 3 356 356 353 348 349 347 346 345 341 342 343 337 334 334 333 325 310 284 231 230 212 197 180 189 195 197 193 187 183 181 181 184 180 177 184 183 168
315 307 311 57 158 355 258 15 29 14 353 343 348 350 350 351 347 345 344 344 343 343 345 340 341 338 338 331 326 320 246 228 214 194 179 188 190 194 194 185 188 185 187 180 179 189 184 186 181
348 357 8 7 9 261 344 335 84 12 353 345 336 342 350 352 354 345 348 348 346 347 346 344 343 341 342 338 334 333 322 230 214 187 188 185 192 196 196 188 187 187 188 184 182 184 185 189 193
341 59 97 303 314 299 298 246 113 6 359 357 346 340 349 350 357 350 343 347 344 346 346 345 344 344 345 343 341 343 344 320 174 171 174 184 193 195 180 196 196 195 185 177 178 184 182 187 193
319 29 185 206 288 274 265 298 209 12 6 360 356 354 355 350 352 350 341 345 348 348 349 349 349 347 346 346 346 352 354 352 346 165 159 174 160 165 174 186 186 176 175 177 178 181 185 189 186
121 232 44 27 12 304 279 299 270 355 348 349 352 353 347 345 345 339 343 344 346 349 350 353 355 354 348 348 352 354 359 0 0 22 11 317 169 158 170 177 173 165 173 177 180 185 184 183 188
350 30 56 138 169 237 310 261 209 10 344 337 339 345 339 340 340 340 339 339 340 347 355 357 357 360 360 354 353 360 4 6 9 15 9 2 5 337 173 177 161 167 171 174 182 180 179 188 184
163 188 145 122 274 242 268 271 275 356 349 337 322 336 334 339 338 338 339 341 347 348 354 358 355 1 2 358 356 4 6 9 12 12 8 2 353 352 268 162 158 160 170 175 186 179 181 191 187